SBI1093 UUDD-UWGG

Flight info

Callsign SBI1093
Flight time 0h 37m
Altitude 29000
Route KOGOM4Q KOGOM L94 USTOK USTOK2P
Aircraft A320/M-SDE3FGHIRWY/LB1

Departure

Time 2026-05-08 17:16
Airport Domodedovo International Airport (UUDD)

Arrival

Time 2026-05-08 17:54
Airport Nizhny Novgorod / Strigino International Airport (UWGG)
Time Latitude Longitude Altitude Speed Heading
2026-05-08 16:41 55.41232 37.90127 571 ft 0 kts 234°
2026-05-08 16:55 55.41233 37.90128 571 ft 1 kts 234°
2026-05-08 16:56 55.41238 37.90141 578 ft 3 kts 232°
2026-05-08 16:56 55.41251 37.90168 577 ft 3 kts 221°
2026-05-08 16:56 55.41267 37.90189 575 ft 3 kts 202°
2026-05-08 16:56 55.41285 37.90196 573 ft 3 kts 160°
2026-05-08 16:57 55.41295 37.90187 580 ft 0 kts 145°
2026-05-08 16:59 55.41274 37.90214 575 ft 5 kts 145°
2026-05-08 16:59 55.41248 37.90245 571 ft 4 kts 145°
2026-05-08 17:00 55.41216 37.90283 572 ft 6 kts 145°
2026-05-08 17:00 55.41181 37.90325 574 ft 7 kts 146°
2026-05-08 17:00 55.41140 37.90373 569 ft 7 kts 146°
2026-05-08 17:00 55.41101 37.90368 569 ft 6 kts 221°
2026-05-08 17:01 55.41071 37.90299 568 ft 9 kts 235°
2026-05-08 17:01 55.41030 37.90191 568 ft 10 kts 236°
2026-05-08 17:01 55.40983 37.90071 568 ft 12 kts 235°
2026-05-08 17:01 55.40932 37.89939 571 ft 15 kts 235°
2026-05-08 17:02 55.40867 37.89773 571 ft 17 kts 236°
2026-05-08 17:02 55.40801 37.89615 569 ft 10 kts 217°
2026-05-08 17:02 55.40743 37.89546 572 ft 12 kts 234°
2026-05-08 17:02 55.40696 37.89424 569 ft 12 kts 235°
2026-05-08 17:03 55.40635 37.89357 572 ft 11 kts 171°
2026-05-08 17:03 55.40554 37.89446 566 ft 18 kts 146°
2026-05-08 17:03 55.40437 37.89587 568 ft 23 kts 146°
2026-05-08 17:03 55.40294 37.89761 562 ft 28 kts 146°
2026-05-08 17:04 55.40152 37.89931 556 ft 15 kts 146°
2026-05-08 17:04 55.40089 37.89990 555 ft 10 kts 172°
2026-05-08 17:04 55.40054 37.89915 555 ft 8 kts 277°
2026-05-08 17:04 55.40072 37.89833 562 ft 6 kts 294°
2026-05-08 17:05 55.40077 37.89814 563 ft 0 kts 295°
2026-05-08 17:12 55.40092 37.89762 560 ft 9 kts 297°
2026-05-08 17:12 55.40141 37.89632 565 ft 14 kts 308°
2026-05-08 17:12 55.40215 37.89495 565 ft 17 kts 320°
2026-05-08 17:12 55.40291 37.89401 565 ft 2 kts 326°
2026-05-08 17:13 55.40291 37.89400 565 ft 0 kts 326°
2026-05-08 17:15 55.40302 37.89387 566 ft 12 kts 326°
2026-05-08 17:16 55.40634 37.88989 576 ft 98 kts 325°
2026-05-08 17:16 55.41378 37.88097 638 ft 154 kts 325°
2026-05-08 17:16 55.42323 37.86965 1250 ft 172 kts 327°
2026-05-08 17:16 55.43258 37.85627 2154 ft 180 kts 314°
2026-05-08 17:17 55.44129 37.83854 2743 ft 200 kts 310°
2026-05-08 17:17 55.45019 37.81911 3585 ft 209 kts 309°
2026-05-08 17:17 55.45940 37.79909 3949 ft 210 kts 309°
2026-05-08 17:17 55.46964 37.78066 4009 ft 211 kts 328°
2026-05-08 17:18 55.48437 37.77259 4334 ft 239 kts 357°
2026-05-08 17:18 55.50116 37.78059 4984 ft 267 kts 32°
2026-05-08 17:18 55.51324 37.80607 5837 ft 283 kts 63°
2026-05-08 17:18 55.52017 37.83879 6776 ft 292 kts 73°
2026-05-08 17:19 55.52527 37.87392 7682 ft 299 kts 77°
2026-05-08 17:19 55.52980 37.91064 8639 ft 306 kts 78°
2026-05-08 17:19 55.53433 37.94782 9589 ft 313 kts 78°
2026-05-08 17:19 55.54189 37.98444 10340 ft 327 kts 64°
2026-05-08 17:20 55.55206 38.02202 10749 ft 351 kts 63°
2026-05-08 17:20 55.56315 38.06204 11132 ft 374 kts 63°
2026-05-08 17:20 55.57486 38.10390 11805 ft 384 kts 63°
2026-05-08 17:20 55.58676 38.14650 12638 ft 389 kts 63°
2026-05-08 17:21 55.59875 38.18967 13491 ft 394 kts 63°
2026-05-08 17:21 55.61083 38.23333 14291 ft 398 kts 63°
2026-05-08 17:21 55.62292 38.27725 15037 ft 403 kts 63°
2026-05-08 17:21 55.63522 38.32210 15789 ft 407 kts 63°
2026-05-08 17:22 55.64757 38.36735 16532 ft 410 kts 63°
2026-05-08 17:22 55.66017 38.41375 17272 ft 414 kts 63°
2026-05-08 17:22 55.67270 38.45998 17999 ft 418 kts 63°
2026-05-08 17:22 55.68518 38.50603 18656 ft 422 kts 63°
2026-05-08 17:23 55.69814 38.55382 19264 ft 426 kts 63°
2026-05-08 17:23 55.71105 38.60132 19863 ft 430 kts 63°
2026-05-08 17:23 55.72386 38.64862 20462 ft 433 kts 63°
2026-05-08 17:23 55.73707 38.69762 21064 ft 436 kts 63°
2026-05-08 17:24 55.75018 38.74654 21640 ft 440 kts 63°
2026-05-08 17:24 55.76334 38.79582 22222 ft 444 kts 63°
2026-05-08 17:24 55.77662 38.84552 22773 ft 447 kts 63°
2026-05-08 17:24 55.79002 38.89570 23326 ft 451 kts 63°
2026-05-08 17:25 55.80348 38.94611 23846 ft 455 kts 63°
2026-05-08 17:25 55.81709 38.99712 24304 ft 458 kts 63°
2026-05-08 17:25 55.83074 39.04845 24753 ft 460 kts 63°
2026-05-08 17:25 55.84444 39.10012 25206 ft 463 kts 63°
2026-05-08 17:26 55.85820 39.15217 25652 ft 466 kts 63°
2026-05-08 17:26 55.87201 39.20454 26095 ft 469 kts 63°
2026-05-08 17:26 55.88587 39.25732 26527 ft 472 kts 63°
2026-05-08 17:26 55.89972 39.31037 26961 ft 474 kts 64°
2026-05-08 17:27 55.91367 39.36385 27389 ft 477 kts 63°
2026-05-08 17:27 55.92770 39.41762 27790 ft 480 kts 63°
2026-05-08 17:27 55.94177 39.47173 28178 ft 483 kts 64°
2026-05-08 17:27 55.95591 39.52616 28566 ft 485 kts 64°
2026-05-08 17:28 55.97016 39.58101 28948 ft 488 kts 64°
2026-05-08 17:28 55.98441 39.63607 29144 ft 489 kts 64°
2026-05-08 17:28 56.01353 39.74396 29168 ft 485 kts 61°
2026-05-08 17:29 56.04568 39.85106 29164 ft 484 kts 59°
2026-05-08 17:29 56.07793 39.95689 29164 ft 485 kts 60°
2026-05-08 17:30 56.10949 40.06371 29171 ft 485 kts 60°
2026-05-08 17:30 56.14057 40.17109 29165 ft 485 kts 61°
2026-05-08 17:31 56.17157 40.27868 29159 ft 485 kts 61°
2026-05-08 17:31 56.20264 40.38625 29152 ft 485 kts 60°
2026-05-08 17:32 56.23359 40.49406 29150 ft 486 kts 61°
2026-05-08 17:32 56.25521 40.60916 29143 ft 489 kts 82°
2026-05-08 17:33 56.25633 40.67017 29138 ft 489 kts 95°
2026-05-08 17:33 56.25314 40.73100 29137 ft 489 kts 96°
2026-05-08 17:33 56.24609 40.85236 29132 ft 489 kts 97°
2026-05-08 17:34 56.23856 40.97439 29129 ft 490 kts 97°
2026-05-08 17:34 56.23096 41.09511 29133 ft 490 kts 97°
2026-05-08 17:35 56.22331 41.21670 29136 ft 491 kts 97°
2026-05-08 17:35 56.21561 41.33896 29134 ft 491 kts 97°
2026-05-08 17:36 56.20773 41.46087 29125 ft 491 kts 97°
2026-05-08 17:36 56.20377 41.52179 28866 ft 491 kts 97°
2026-05-08 17:36 56.19979 41.58263 28265 ft 490 kts 97°
2026-05-08 17:37 56.19579 41.64326 27332 ft 488 kts 97°
2026-05-08 17:37 56.19175 41.70357 26437 ft 485 kts 97°
2026-05-08 17:37 56.18767 41.76370 25511 ft 484 kts 97°
2026-05-08 17:37 56.18359 41.82359 24598 ft 484 kts 98°
2026-05-08 17:38 56.17947 41.88353 23687 ft 484 kts 98°
2026-05-08 17:38 56.17531 41.94341 22714 ft 482 kts 98°
2026-05-08 17:38 56.17117 42.00281 21882 ft 477 kts 98°
2026-05-08 17:38 56.16705 42.06157 21061 ft 473 kts 98°
2026-05-08 17:39 56.16294 42.11999 20261 ft 470 kts 98°
2026-05-08 17:39 56.15883 42.17794 19499 ft 467 kts 98°
2026-05-08 17:39 56.15475 42.23531 18767 ft 463 kts 97°
2026-05-08 17:39 56.15066 42.29242 18003 ft 459 kts 98°
2026-05-08 17:40 56.14791 42.33069 17548 ft 455 kts 98°
2026-05-08 17:40 56.14387 42.38654 16899 ft 448 kts 98°
2026-05-08 17:40 56.13992 42.44074 16283 ft 442 kts 98°
2026-05-08 17:40 56.13588 42.49569 15626 ft 437 kts 98°
2026-05-08 17:41 56.13196 42.54872 14989 ft 432 kts 98°
2026-05-08 17:41 56.12794 42.60264 14314 ft 430 kts 98°
2026-05-08 17:41 56.12396 42.65558 13573 ft 428 kts 98°
2026-05-08 17:41 56.11995 42.70814 12836 ft 424 kts 98°
2026-05-08 17:42 56.11731 42.74277 12329 ft 422 kts 98°
2026-05-08 17:42 56.11200 42.81225 11294 ft 419 kts 98°
2026-05-08 17:42 56.10814 42.86283 10873 ft 407 kts 98°
2026-05-08 17:42 56.10435 42.91250 10747 ft 388 kts 98°
2026-05-08 17:43 56.10080 42.95859 10623 ft 370 kts 98°
2026-05-08 17:43 56.09727 43.00379 10501 ft 355 kts 98°
2026-05-08 17:43 56.09393 43.04605 10382 ft 342 kts 98°
2026-05-08 17:43 56.09061 43.08810 10260 ft 330 kts 98°
2026-05-08 17:44 56.08749 43.12770 10031 ft 323 kts 98°
2026-05-08 17:44 56.08438 43.16714 9734 ft 321 kts 98°
2026-05-08 17:44 56.08124 43.20669 9325 ft 319 kts 98°
2026-05-08 17:44 56.07810 43.24584 8929 ft 316 kts 98°
2026-05-08 17:45 56.07497 43.28485 8417 ft 318 kts 98°
2026-05-08 17:45 56.07183 43.32406 7991 ft 317 kts 97°
2026-05-08 17:45 56.06869 43.36298 7568 ft 315 kts 97°
2026-05-08 17:45 56.06553 43.40187 6834 ft 316 kts 97°
2026-05-08 17:46 56.06236 43.44071 5994 ft 314 kts 97°
2026-05-08 17:46 56.05920 43.47899 5154 ft 309 kts 96°
2026-05-08 17:46 56.05608 43.51651 4441 ft 299 kts 95°
2026-05-08 17:46 56.05313 43.55183 4249 ft 273 kts 95°
2026-05-08 17:47 56.05045 43.58371 4184 ft 246 kts 95°
2026-05-08 17:47 56.04798 43.61296 4111 ft 229 kts 95°
2026-05-08 17:47 56.04569 43.63998 4034 ft 212 kts 95°
2026-05-08 17:47 56.04426 43.65684 3989 ft 199 kts 94°
2026-05-08 17:48 56.04209 43.68739 3888 ft 168 kts 82°
2026-05-08 17:48 56.04505 43.70578 3718 ft 146 kts 52°
2026-05-08 17:48 56.05156 43.71810 3561 ft 130 kts 27°
2026-05-08 17:48 56.05951 43.72384 3423 ft 123 kts
2026-05-08 17:49 56.06796 43.72688 3273 ft 121 kts
2026-05-08 17:49 56.07622 43.72987 3112 ft 121 kts
2026-05-08 17:49 56.08428 43.73280 2951 ft 120 kts
2026-05-08 17:49 56.09254 43.73580 2800 ft 119 kts
2026-05-08 17:50 56.10061 43.73873 2634 ft 117 kts
2026-05-08 17:50 56.10856 43.74162 2472 ft 116 kts
2026-05-08 17:50 56.11646 43.74449 2313 ft 115 kts
2026-05-08 17:50 56.12428 43.74733 2157 ft 115 kts
2026-05-08 17:51 56.13218 43.75020 1998 ft 115 kts
2026-05-08 17:51 56.14007 43.75307 1841 ft 116 kts
2026-05-08 17:51 56.14785 43.75590 1684 ft 116 kts
2026-05-08 17:51 56.15573 43.75877 1524 ft 116 kts
2026-05-08 17:52 56.16369 43.76167 1369 ft 118 kts
2026-05-08 17:52 56.17175 43.76460 1190 ft 118 kts
2026-05-08 17:52 56.18799 43.77100 824 ft 120 kts
2026-05-08 17:53 56.19623 43.77370 667 ft 120 kts
2026-05-08 17:53 56.20444 43.77648 486 ft 119 kts
2026-05-08 17:53 56.21257 43.77942 359 ft 118 kts
2026-05-08 17:53 56.22043 43.78237 271 ft 106 kts
2026-05-08 17:54 56.22622 43.78451 265 ft 61 kts 13°
2026-05-08 17:54 56.22876 43.78541 267 ft 23 kts
2026-05-08 17:54 56.23050 43.78602 269 ft 25 kts 12°
2026-05-08 17:54 56.23224 43.78668 268 ft 26 kts 12°
2026-05-08 17:55 56.23409 43.78736 266 ft 28 kts 11°
2026-05-08 17:55 56.23598 43.78803 263 ft 28 kts 11°
2026-05-08 17:55 56.23781 43.78871 266 ft 26 kts 12°
2026-05-08 17:55 56.23954 43.78934 267 ft 25 kts 11°
2026-05-08 17:56 56.24091 43.78992 268 ft 12 kts 27°
2026-05-08 17:56 56.24090 43.79164 266 ft 17 kts 120°
2026-05-08 17:56 56.23996 43.79267 266 ft 16 kts 175°
2026-05-08 17:56 56.23887 43.79258 266 ft 15 kts 179°
2026-05-08 17:57 56.23786 43.79254 266 ft 15 kts 182°
2026-05-08 17:57 56.23684 43.79246 266 ft 15 kts 183°
2026-05-08 17:57 56.23579 43.79236 266 ft 15 kts 183°
2026-05-08 17:57 56.23478 43.79221 266 ft 14 kts 190°
2026-05-08 17:58 56.23370 43.79183 266 ft 18 kts 191°
2026-05-08 17:58 56.23244 43.79136 266 ft 18 kts 192°
2026-05-08 17:58 56.23123 43.79091 266 ft 17 kts 191°
2026-05-08 17:58 56.23009 43.79050 266 ft 16 kts 192°
2026-05-08 17:59 56.22899 43.79009 266 ft 16 kts 191°
2026-05-08 17:59 56.22793 43.78970 266 ft 15 kts 192°
2026-05-08 17:59 56.22687 43.78931 266 ft 16 kts 192°
2026-05-08 17:59 56.22579 43.78891 266 ft 16 kts 191°
2026-05-08 18:00 56.22473 43.78851 266 ft 15 kts 197°
2026-05-08 18:00 56.22279 43.78757 266 ft 14 kts 192°
2026-05-08 18:00 56.22186 43.78722 266 ft 13 kts 191°
2026-05-08 18:01 56.22096 43.78691 266 ft 13 kts 191°
2026-05-08 18:01 56.22024 43.78700 266 ft 8 kts 141°
2026-05-08 18:01 56.21999 43.78828 266 ft 7 kts 101°
2026-05-08 18:01 56.21996 43.78856 266 ft 0 kts 101°